Location: Palau
(42.3086°N, 3.1507°E)
Time: 00:35:49
(UTC+00:00)

Daily predictions for brighter satellites

Satellite Brightness Start Highest point End
(mag) Time Altitude Azimuth Time Altitude Azimuth Time Altitude Azimuth
Lacrosse 5 4.2 00:02:41 10° W 00:03:12 12° W 00:03:12 12° W
Cosmos 1655 Rocket 4.4 00:07:30 44° WSW 00:08:43 50° WNW 00:14:46 10° N
GEOS 3 Rocket 4.4 00:07:39 29° ESE 00:09:59 49° NE 00:15:04 10° NNW
S3M 4.3 00:06:00 10° NNW 00:11:51 48° W 00:12:36 45° WSW
COSMOS 2455 2.9 00:11:40 60° SE 00:12:05 62° ESE 00:18:01 10° NE
Cosmos 1726 3.7 00:08:42 10° NNW 00:10:54 32° NW 00:10:54 32° NW
Cosmos 2058 Rocket 4.3 00:09:29 10° NNE 00:13:28 32° ENE 00:13:46 32° E
Cosmos 2228 3.4 00:11:50 10° N 00:15:32 58° NE 00:15:32 58° NE
Meteor 2-15 Rocket 4.3 00:13:44 10° N 00:19:55 87° W 00:20:55 65° S
Cosmos 1953 3.8 00:16:53 10° NNW 00:19:26 30° NW 00:19:26 30° NW
Okean 1-7 Rocket 4.3 00:22:03 44° E 00:22:03 44° E 00:26:05 10° NNE
Cosmos 1340 Rocket 3.9 00:18:19 10° NNW 00:21:08 39° NW 00:21:08 39° NW
Cosmos 1300 4.4 00:21:54 10° NNE 00:25:04 27° ENE 00:25:04 27° ENE
COSMOS 2487 4.1 00:25:15 10° NNW 00:27:18 33° N 00:27:18 33° N
Cosmos 1833 4.1 00:24:02 10° NNW 00:29:38 65° WSW 00:29:45 64° WSW
USA 215 4.4 00:33:06 26° WSW 00:33:06 26° WSW 00:37:14 10° WNW
Cosmos 1626 3.3 00:34:31 39° NE 00:34:31 39° NE 00:37:14 10° NNE
Cosmos 1656 Rocket 4.2 00:33:51 44° W 00:34:59 51° WNW 00:40:27 10° NNE
FALCON 9 R/B 3.1 00:38:25 48° S 00:39:10 49° SSE 00:55:28 10° E
Cosmos 1606 Rocket 3.9 00:35:10 10° NNW 00:38:48 56° NW 00:38:48 56° NW
CZ-4 R/B 4.4 00:40:29 10° N 00:45:06 46° WNW 00:45:23 45° W
Meteor 2-21 4.3 00:45:34 59° SSW 00:46:50 86° W 00:53:03 10° N
Cosmos 2297 Rocket 4.3 00:44:26 10° N 00:48:56 24° NE 00:53:26 10° ESE
SL-4 R/B 2.3 00:49:13 77° WNW 00:49:27 80° NNW 00:54:14 10° NE
NOSS 3-2 (C) 4.3 00:44:56 10° NW 00:52:25 53° WSW 00:54:29 44° SSW
Cosmos 1674 4.2 00:53:21 27° NW 00:53:21 27° NW 00:55:53 10° NNW
PSLV R/B 4.4 00:49:26 10° N 00:53:45 40° WNW 00:53:53 40° WNW
ATLAS CENTAUR R/B 1.6 00:56:56 64° NW 00:56:56 64° NW 01:01:05 10° NNE
SL-19 R/B 4.1 00:53:31 10° NNE 00:58:57 85° WNW 01:00:03 59° SSW
SL-16 R/B 3.1 00:56:01 24° SE 00:59:39 53° ENE 01:05:36 10° N
NOSS 3-4 (A) 4.0 00:57:31 33° W 00:59:51 49° NW 01:06:00 10° NNE
NOSS 3-4 (C) 4.0 00:57:37 33° W 00:59:57 49° NW 01:06:06 10° NNE
BREEZE-M R/B 3.2 01:01:08 60° ESE 01:01:08 60° ESE 01:04:03 10° ENE
Cosmos 1777 Rocket 3.9 00:55:42 10° NNW 01:00:58 89° ENE 01:01:54 62° SSE
Spot 1 4.1 01:00:54 79° SSW 01:01:06 83° WSW 01:05:56 10° NNW
Timation 2 Rocket 4.1 00:54:52 10° NNW 01:01:13 71° ENE 01:04:30 29° SE
Cosmos 1602 Rocket 4.4 01:01:58 37° ESE 01:02:28 38° E 01:06:29 10° NNE
ATLAS 3B R/B 2.6 01:01:27 10° NW 01:08:18 87° WSW 01:12:43 25° SSE
BREEZE-M DEB (TANK) 3.3 01:12:39 29° N 01:12:39 29° N 01:14:10 10° NE
CENTAUR R/B 3.5 01:04:24 10° NW 01:12:14 48° WSW 01:14:47 38° SSW
Meteor 2-21 Rocket 4.5 01:11:40 50° SW 01:13:16 70° W 01:19:26 10° N
Cosmos 1745 Rocket 3.9 01:12:45 46° S 01:14:45 80° E 01:20:54 10° N
Cosmos 1892 Rocket 4.4 01:14:51 38° WNW 01:14:51 38° WNW 01:18:59 10° N
Cosmos 1867 3.7 01:11:22 10° NW 01:16:39 51° WSW 01:16:44 51° WSW
RESURS DK-1 2.4 01:19:17 69° WNW 01:19:20 69° WNW 01:23:29 10° NNE
Meteor 1-24 Rocket 3.9 01:22:03 43° WSW 01:23:03 49° WNW 01:28:16 10° N
Cosmos 2227 Rocket 3.6 01:19:33 10° N 01:24:49 37° ENE 01:30:02 10° SE
Cosmos 1356 Rocket 3.3 01:21:12 10° N 01:25:21 81° E 01:25:49 69° SSE
Cosmos 1697 Rocket 4.4 01:23:11 17° SE 01:25:53 23° E 01:30:15 10° NE
CZ-2D R/B 2.1 01:23:25 10° NNE 01:28:42 76° ESE 01:30:15 46° S
ATLAS 2AS CENTAUR R/B 4.0 01:23:17 18° WSW 01:28:49 41° NW 01:36:13 10° NNE
CZ-4C R/B 3.3 01:30:46 71° SSW 01:31:07 78° WSW 01:35:26 10° NNW
ADEOS II 3.5 01:26:39 10° NE 01:31:17 31° E 01:34:07 19° SE
DELTA 2 DEB (DPAF) 4.4 01:34:11 49° WSW 01:34:15 50° W 01:38:36 10° NNW
STARLINK-1228 3.6 01:32:19 10° NW 01:35:37 57° NNE 01:38:54 10° ESE
STARLINK-1234 3.6 01:33:45 10° NW 01:36:48 52° NNE 01:37:03 51° NE
STARLINK-1212 4.2 01:35:10 10° NW 01:38:08 40° NNE 01:41:05 10° ESE
USA 81 4.1 01:36:19 39° SSE 01:38:18 74° E 01:43:35 10° N
Resurs 1-4 Rocket 2.0 01:33:08 10° NNE 01:38:28 86° WNW 01:40:11 45° SSW
STARLINK-1105 4.2 01:35:39 10° NW 01:38:36 40° NNE 01:41:32 10° ESE
STARLINK-1209 3.6 01:35:59 10° NW 01:38:43 53° N 01:38:43 53° N
STARLINK-1247 4.2 01:36:32 10° NW 01:39:32 41° NNE 01:42:31 10° ESE
STARLINK-52 3.7 01:39:41 47° NNW 01:39:41 47° NNW 01:42:43 10° NE
STARLINK-1227 4.1 01:37:01 10° NW 01:39:58 41° NNE 01:42:56 10° ESE
Cosmos 1758 Rocket 4.3 01:39:23 33° SE 01:40:49 47° E 01:45:00 10° NNE
STARLINK-1226 4.1 01:37:52 10° NW 01:40:50 42° NNE 01:43:49 10° ESE
STARLINK-1215 4.1 01:38:47 10° NW 01:41:48 43° NNE 01:44:47 10° ESE
ARIANE 5 R/B 4.3 01:39:17 10° NE 01:43:19 24° E 01:46:55 12° SE
STARLINK-1217 4.0 01:40:33 10° NW 01:43:34 44° NNE 01:46:34 10° ESE
STARLINK-1229 4.0 01:41:28 10° NW 01:44:29 45° NNE 01:47:30 10° ESE
STARLINK-1270 3.9 01:42:19 10° NW 01:45:21 46° NNE 01:48:22 10° ESE
NPP 3.6 01:40:29 10° NNE 01:45:54 87° WNW 01:47:56 40° SSW
STARLINK-1189 3.8 01:44:09 10° NW 01:47:12 48° NNE 01:50:13 10° ESE
STARLINK-1188 3.8 01:45:03 10° NW 01:48:05 48° NNE 01:51:08 10° ESE
GEOS 3 Rocket 4.5 01:48:43 30° WSW 01:48:43 30° WSW 01:52:45 10° NW
STARLINK-1235 3.2 01:45:41 10° NW 01:48:46 64° NE 01:51:50 10° ESE
STARLINK-1187 3.5 01:46:07 10° NW 01:49:11 56° NE 01:52:14 10° ESE
Meteor 1-21 Rocket 4.2 01:46:48 36° S 01:49:12 81° E 01:54:53 10° NNE
Cosmos 1898 Rocket 4.4 01:45:03 10° N 01:50:14 49° ENE 01:55:22 10° SE
STARLINK-1191 3.7 01:47:30 10° NW 01:50:33 51° NNE 01:53:34 10° ESE
Cosmos 1656 3.8 01:48:20 36° S 01:50:41 69° ESE 01:56:18 10° NNE
STARLINK-1221 3.6 01:48:22 10° NW 01:51:25 52° NNE 01:54:27 10° ESE
STARLINK-1222 3.6 01:49:16 10° NW 01:52:19 53° NNE 01:55:21 10° ESE
CZ-4C R/B 3.0 01:50:43 26° SSE 01:52:41 35° ESE 01:57:44 10° NE
STARLINK-1214 3.6 01:50:10 10° NW 01:53:13 54° NNE 01:56:16 10° ESE
Cosmos 2084 3.8 01:52:18 43° WSW 01:53:31 60° NW 01:57:57 10° NNE
Cosmos 468 Rocket 4.1 01:52:22 35° S 01:54:27 65° ESE 01:59:32 10° NNE
SJ 16-02 1.8 01:51:24 10° NNW 01:55:47 60° ENE 01:59:17 16° SSE
COSMOS 2455 4.4 01:54:47 15° W 01:58:26 26° NW 02:03:28 10° N
Cosmos 921 Rocket 4.3 02:00:21 25° W 02:01:16 27° WNW 02:04:56 10° N
Meteor 2-10 Rocket 3.4 01:57:35 10° N 02:02:56 89° W 02:06:01 25° S
Cosmos 1709 Rocket 3.9 02:01:48 31° SSW 02:04:53 76° W 02:11:02 10° N
STARLINK-1320 2.9 02:14:52 55° W 02:15:21 69° NW 02:18:28 10° NE
STARLINK-1322 3.0 02:15:11 54° W 02:15:42 68° NW 02:18:49 10° NE
STARLINK-1324 3.0 02:15:32 53° W 02:16:03 67° NW 02:19:09 10° NE
STARLINK-1294 3.0 02:15:47 53° W 02:16:20 67° NW 02:19:27 10° NE
STARLINK-1261 3.0 02:16:10 52° W 02:16:42 67° NW 02:19:48 10° NE
STARLINK-1325 3.0 02:16:30 51° W 02:17:04 66° NW 02:20:10 10° NE
STARLINK-1333 3.0 02:16:48 51° W 02:17:22 65° NW 02:20:29 10° NE
STARLINK-1334 3.0 02:17:07 50° W 02:17:43 65° NW 02:20:48 10° NE
Cosmos 2219 3.2 02:12:15 10° NNW 02:17:49 61° WSW 02:22:14 16° S
Cosmos 1980 Rocket 3.5 02:13:41 13° SSE 02:18:01 33° ESE 02:23:00 10° NE
STARLINK-1326 3.0 02:17:28 49° W 02:18:04 64° NW 02:21:10 10° NE
STARLINK-1323 3.0 02:17:47 49° W 02:18:24 64° NW 02:21:30 10° NE
STARLINK-1338 3.1 02:17:39 45° WSW 02:18:35 75° NW 02:22:05 10° NE
STARLINK-1349 3.1 02:18:06 48° W 02:18:43 64° NW 02:21:50 10° NE
STARLINK-1336 3.1 02:18:28 48° W 02:19:06 63° NW 02:22:12 10° NE
STARLINK-1331 3.1 02:18:45 47° W 02:19:24 63° NW 02:22:30 10° NE
STARLINK-1344 3.1 02:19:05 46° W 02:19:45 62° NW 02:22:51 10° NE
STARLINK-1343 3.1 02:19:25 46° W 02:20:05 62° NW 02:23:11 10° NE
STARLINK-1346 3.1 02:19:43 45° W 02:20:26 61° NW 02:23:35 10° NE
STARLINK-1328 3.1 02:20:05 45° W 02:20:47 61° NW 02:23:52 10° NE
Cosmos 1328 3.7 02:19:19 34° S 02:20:58 85° W 02:24:59 10° N
STARLINK-1354 3.1 02:20:22 44° W 02:21:05 60° NW 02:24:11 10° NE
STARLINK-1347 3.1 02:20:44 44° W 02:21:27 60° NW 02:24:33 10° NE
STARLINK-1357 3.2 02:21:02 43° W 02:21:46 59° NW 02:24:52 10° NE
STARLINK-1335 3.2 02:21:22 42° W 02:22:07 59° NNW 02:25:12 10° NE
STARLINK-1327 3.2 02:21:41 42° W 02:22:27 58° NW 02:25:32 10° NE
STARLINK-1371 3.3 02:21:31 39° WSW 02:22:38 70° NW 02:26:08 10° NE
STARLINK-1340 3.2 02:22:01 41° W 02:22:48 58° NW 02:25:53 10° NE
STARLINK-1356 3.2 02:22:21 41° W 02:23:09 58° NNW 02:26:13 10° NE
STARLINK-1345 3.2 02:22:41 40° W 02:23:29 57° NNW 02:26:35 10° NE
ERS-2 3.4 02:20:07 10° SE 02:23:33 40° ENE 02:27:01 10° N
STARLINK-1211 4.5 02:19:33 10° NW 02:23:37 52° NNE 02:27:41 10° ESE
STARLINK-1355 3.2 02:22:59 40° W 02:23:49 57° NNW 02:26:54 10° NE
CRYOSAT 2 4.4 02:18:58 10° N 02:23:54 84° E 02:27:17 20° S
STARLINK-1321 3.2 02:23:18 39° W 02:24:09 56° NNW 02:27:13 10° NE
STARLINK-1358 3.3 02:23:39 39° W 02:24:30 56° NNW 02:27:35 10° NE
STARLINK-1341 3.3 02:23:29 37° WSW 02:24:40 67° NW 02:28:10 10° NE
STARLINK-1332 3.3 02:23:57 38° W 02:24:49 55° NNW 02:27:53 10° NE
STARLINK-1348 3.3 02:24:18 38° W 02:25:11 55° NNW 02:28:15 10° NE
STARLINK-1330 3.3 02:24:36 38° W 02:25:30 55° NNW 02:28:35 10° NE
STARLINK-1363 3.3 02:24:56 37° W 02:25:50 54° NNW 02:28:54 10° NE
STARLINK-1337 3.3 02:25:15 37° W 02:26:10 54° NNW 02:29:15 10° NE
STARLINK-1342 3.3 02:25:35 36° W 02:26:31 53° NNW 02:29:35 10° NE
STARLINK-1374 3.4 02:25:26 35° WSW 02:26:43 65° NW 02:30:13 10° NE
STARLINK-1364 3.3 02:25:55 36° W 02:26:52 53° NNW 02:29:56 10° NE
STARLINK-1376 3.3 02:26:15 35° W 02:27:12 53° NNW 02:30:17 10° NE
STARLINK-1360 3.4 02:26:30 35° W 02:27:29 52° NNW 02:30:33 10° NE
STARLINK-1361 3.4 02:26:56 35° W 02:27:55 52° NNW 02:30:58 10° NE
STARLINK-1367 3.4 02:27:10 34° W 02:28:11 52° NNW 02:31:18 10° NE
STARLINK-1366 3.4 02:27:33 34° W 02:28:34 51° NNW 02:31:37 10° NE
STARLINK-1245 4.3 02:24:32 10° NW 02:28:38 56° NNE 02:32:42 10° ESE
STARLINK-1339 3.4 02:27:26 33° WSW 02:28:48 62° NW 02:32:17 10° NE
IRS-1C 4.1 02:24:17 10° NNE 02:29:40 86° ESE 02:33:24 20° SSW
SL-4 R/B 4.0 02:25:25 10° WNW 02:29:42 31° NNW 02:33:51 10° NE
STARLINK-1377 3.5 02:29:28 31° WSW 02:30:55 59° NNW 02:34:23 10° NE
CZ-4B R/B 4.3 02:27:45 10° N 02:32:29 38° WNW 02:35:13 22° WSW
STARLINK-1353 3.5 02:31:17 29° W 02:32:47 57° NNW 02:36:13 10° NE
Cosmos 2297 Rocket 2.3 02:27:49 10° NNW 02:33:21 57° WSW 02:38:51 10° S
STARLINK-1233 4.2 02:29:30 10° NW 02:33:36 61° NNE 02:37:43 10° ESE
STARLINK-1375 3.6 02:33:04 28° W 02:34:38 55° NNW 02:38:04 10° NE
Cosmos 540 Rocket 3.8 02:32:22 18° S 02:36:09 64° ESE 02:41:14 10° NNE
ATLAS CENTAUR R/B 4.0 02:35:31 10° NW 02:36:32 11° NW 02:37:33 10° NNW
STARLINK-1350 3.7 02:35:22 26° W 02:37:02 52° NNW 02:40:28 10° NE
Cosmos 2082 3.8 02:31:26 10° NNW 02:37:07 79° ENE 02:42:44 10° SSE
STARLINK-1204 4.0 02:34:29 10° NW 02:38:37 66° NE 02:42:43 10° ESE
Cosmos 990 Rocket 4.0 02:34:01 10° NNW 02:39:12 60° WSW 02:44:21 10° S
CBERS-1 4.4 02:34:29 10° N 02:39:25 48° WNW 02:42:28 22° SW
STARLINK-1352 3.8 02:37:40 24° W 02:39:28 51° NNW 02:42:55 10° NE
Cosmos 1825 Rocket 4.0 02:38:21 26° SW 02:40:23 44° WNW 02:44:33 10° N
Cosmos 2278 4.0 02:36:08 17° S 02:40:31 63° ESE 02:46:07 10° NNE
STARLINK-1368 3.8 02:39:45 23° W 02:41:39 49° NNW 02:45:05 10° NE
Meteor 1-11 4.2 02:38:11 16° S 02:42:48 88° E 02:48:26 10° N
Cosmos 1455 3.1 02:39:54 10° NNW 02:43:11 29° W 02:44:16 25° WSW
Meteor 1-28 Rocket 3.5 02:39:34 10° SSE 02:43:19 70° ENE 02:47:05 10° N
SL-16 R/B 3.6 02:41:06 20° SW 02:43:31 25° W 02:48:31 10° NW
STARLINK-1369 3.9 02:41:37 22° W 02:43:34 47° NNW 02:46:58 10° NE
STARLINK-1238 3.9 02:39:26 10° NW 02:43:35 71° NE 02:47:42 10° ESE
CZ-2D R/B 3.9 02:39:52 10° NNE 02:43:56 58° E 02:47:41 12° S
USA 234 4.0 02:39:31 10° ENE 02:45:42 43° SE 02:51:07 13° SSW
STARLINK-1372 4.0 02:43:57 20° W 02:46:03 45° NNW 02:49:28 10° NE
Cosmos 2074 Rocket 4.0 02:40:26 13° S 02:46:11 89° E 02:52:32 10° N
ATLAS CENTAUR R/B 2.5 02:43:34 10° NW 02:47:02 60° SW 02:55:29 10° SSE
STARLINK-1378 4.0 02:46:05 19° W 02:48:17 43° NNW 02:51:41 10° NE
Cosmos 841 Rocket 3.5 02:44:27 18° SSW 02:48:25 89° ESE 02:53:41 10° NNE
STARLINK-1201 3.7 02:44:25 10° NW 02:48:35 78° NE 02:52:43 10° ESE
STARLINK-1329 4.0 02:46:35 19° W 02:48:49 43° NNW 02:52:13 10° NE
STARLINK-1365 4.1 02:47:17 18° W 02:49:33 41° NNW 02:52:55 10° NE
STARLINK-1379 4.1 02:48:13 18° W 02:50:31 42° NNW 02:53:54 10° NE
STARLINK-1362 4.1 02:48:47 18° W 02:51:06 42° NNW 02:54:30 10° NE
GP-B 4.1 02:47:33 10° NNW 02:51:24 29° W 02:53:37 19° SW
IRS-1D 4.3 02:47:20 10° N 02:52:15 39° WNW 02:55:45 18° SW
COBE Rocket 3.9 02:48:23 10° SSE 02:53:17 86° WSW 02:58:21 10° NNW
STARLINK-1373 4.2 02:50:59 17° W 02:53:25 40° NNW 02:56:48 10° NE
STARLINK-1206 3.6 02:49:24 10° NW 02:53:34 84° NE 02:57:42 10° SE
Cosmos-2242 3.7 02:50:55 10° NNW 02:54:48 35° W 02:57:20 18° SSW
STARLINK-1390 4.2 02:52:59 16° W 02:55:28 39° NNW 02:58:50 10° NE
Cosmos 1400 Rocket 2.8 02:51:56 10° NNW 02:56:04 83° WSW 03:00:11 10° S
Cosmos 2221 3.6 02:52:40 10° N 02:56:51 46° ENE 03:01:02 10° SSE
Cosmos 2184 Rocket 4.0 02:51:53 12° SSW 02:57:43 78° W 03:03:55 10° N
ATLAS 3B R/B 4.1 02:54:05 10° WNW 02:58:06 16° WSW 02:59:50 15° WSW
STARLINK-1205 3.6 02:54:22 10° NW 02:58:31 89° WSW 03:02:40 10° SE
SL-08 R/B 3.5 02:54:15 10° S 02:58:50 52° W 03:03:24 10° NNW
CZ-4C R/B 3.5 02:55:45 10° SSE 02:59:17 66° ENE 03:02:53 10° N
STARLINK-1218 3.5 02:59:20 10° NW 03:03:29 82° SW 03:07:37 10° SE
Cosmos 1763 Rocket 4.4 03:03:46 15° WSW 03:07:22 34° WNW 03:12:00 10° N
CZ-2D R/B 4.0 03:05:09 10° NNW 03:08:05 15° WNW 03:11:01 10° W
STARLINK-1254 3.5 03:04:20 10° NW 03:08:28 75° SW 03:12:36 10° SE
Cosmos 2227 Rocket 2.9 03:03:45 10° NW 03:08:47 33° WSW 03:13:47 10° SSW
Cosmos 1697 Rocket 3.1 03:04:56 15° SW 03:09:26 51° WNW 03:14:59 10° NNE
ADEOS II 3.0 03:06:15 10° N 03:10:58 34° WNW 03:15:04 13° SW
STARLINK-1231 3.5 03:09:20 10° WNW 03:13:27 69° SW 03:17:34 10° SE
STARLINK-1212 4.1 03:11:21 10° W 03:13:47 21° SW 03:16:12 10° S
STARLINK-1105 4.1 03:11:49 10° W 03:14:14 21° SW 03:16:38 10° S
STARLINK-1247 4.1 03:12:44 10° W 03:15:10 21° SW 03:17:35 10° S
SL-16 R/B 3.9 03:10:41 10° SSE 03:15:27 29° ESE 03:20:15 10° NE
STARLINK-1227 4.2 03:13:14 10° W 03:15:36 20° SW 03:17:58 10° S
Cosmos 1315 Rocket 3.5 03:12:13 10° N 03:16:05 56° ENE 03:19:55 10° SSE
Cosmos 1610 Rocket 4.5 03:10:17 10° S 03:16:24 83° W 03:22:35 10° N
STARLINK-1226 4.2 03:14:05 10° W 03:16:27 20° SW 03:18:50 10° S
STARLINK-1215 4.2 03:15:03 10° W 03:17:25 20° SW 03:19:46 10° S
Resurs 1-4 Rocket 4.2 03:15:19 10° NNW 03:17:28 13° WNW 03:19:38 10° W
CZ-2C R/B 2.6 03:14:09 10° NNE 03:17:52 89° WNW 03:21:35 10° SSW
STARLINK-1232 3.6 03:14:20 10° WNW 03:18:26 63° SW 03:22:31 10° SE
MSX 4.2 03:13:12 10° NNE 03:18:56 65° ESE 03:24:38 10° S
STARLINK-1217 4.3 03:16:52 10° W 03:19:09 19° SW 03:21:27 10° S
H-2A R/B 2.1 03:15:29 10° S 03:19:41 58° W 03:24:02 10° NNW
STARLINK-1229 4.3 03:17:48 10° W 03:20:05 19° SW 03:22:21 10° S
STARLINK-1270 4.3 03:18:42 10° W 03:20:56 18° SW 03:23:11 10° S
ARIANE 5 R/B 3.1 03:17:50 10° N 03:22:34 41° WNW 03:27:14 10° SW
STARLINK-1189 4.4 03:20:35 10° W 03:22:46 18° SW 03:24:56 10° S
BREEZE-M R/B 4.2 03:20:34 10° WNW 03:23:18 22° NNW 03:25:24 10° NE
STARLINK-1208 3.7 03:19:18 10° WNW 03:23:22 57° SW 03:27:25 10° SE
STARLINK-1188 4.4 03:21:29 10° W 03:23:38 17° SW 03:25:47 10° S
deb Chang Zheng 4 4.4 03:19:41 10° NNE 03:23:55 51° E 03:28:04 10° S
STARLINK-1191 4.5 03:24:03 10° W 03:26:05 16° SW 03:28:05 10° S
STARLINK-1221 4.5 03:24:56 10° W 03:26:56 16° SW 03:28:56 10° S
STARLINK-1271 3.7 03:24:20 10° WNW 03:28:21 51° SW 03:32:22 10° SSE
Spot 4 Rocket 4.4 03:23:33 10° N 03:28:31 51° WNW 03:33:27 10° SW
BREEZE-M DEB (TANK) 1.3 03:26:36 10° WNW 03:28:38 48° SSW 03:31:18 10° SE
SL-24 DEB 4.2 03:24:26 10° N 03:29:05 81° W 03:33:40 10° S
Cosmos 2154 Rocket 4.1 03:23:26 10° SSW 03:29:43 69° W 03:35:59 10° N
Lacrosse 4 Rocket 1.5 03:26:12 10° NW 03:30:28 60° WSW 03:34:35 10° SSE
Cosmos 2058 3.1 03:26:54 10° S 03:31:03 77° E 03:35:16 10° N
Meteor 1-27 4.4 03:26:06 10° NNW 03:31:29 51° W 03:36:49 10° SSW
USA 129 2.0 03:30:34 10° N 03:32:16 29° WNW 03:33:05 16° SW
STARLINK-1154 3.8 03:29:20 10° WNW 03:33:19 47° SW 03:37:17 10° SSE
SJ 16-02 3.3 03:31:56 10° WNW 03:33:48 13° W 03:35:40 10° WSW
Cosmos 2298 Rocket 4.0 03:29:15 10° NNW 03:34:33 78° WSW 03:39:51 10° SSE
SAR-Lupe-1 4.3 03:31:53 10° SSE 03:35:25 73° ENE 03:38:57 10° N
IDEFIX/ARIANE 42P 2.7 03:31:22 10° N 03:36:34 62° WNW 03:41:45 10° SSW
STARLINK-1197 4.0 03:34:21 10° WNW 03:38:16 42° SW 03:42:11 10° SSE
STARLINK 1040 2.7 03:36:01 10° SW 03:38:33 57° SE 03:41:06 10° ENE
CZ-4C R/B 3.1 03:36:24 10° WSW 03:41:05 36° NW 03:46:37 10° NNE
STARLINK-26 4.5 03:38:39 10° SSW 03:41:46 32° SE 03:44:53 10° ENE
STARLINK-1198 4.1 03:39:20 10° WNW 03:43:12 39° SW 03:47:03 10° SSE
Cosmos 1842 Rocket 4.1 03:40:34 10° NNW 03:44:47 41° W 03:48:58 10° SSW
Cosmos 962 Rocket 4.5 03:40:55 10° S 03:47:02 81° W 03:53:13 10° N
